EW3176 Weather Reports


Display with metric or nautical units.
time (UTC)temp
F
wind
direction
speed
MPH
gust
MPH
rain 1hr
in
rain 24hr
in
rain mn
in
humidity
%
barometer
mb
20260905073520 78 0.0 0.0 0.00 0.00 0.00 85 1015.7
20260905072521 78 0.0 0.0 0.00 0.00 0.00 84 1015.7
20260905071521 78 0.0 0.0 0.00 0.00 0.00 84 1015.9
20260905070521 78 0.0 1.0 0.00 0.00 0.00 84 1015.9
20260905065520 79 0.0 0.0 0.00 0.00 0.00 84 1015.9
20260905064651 79 0.0 0.0 0.00 0.00 0.00 84 1016.1
20260905064041 79 0.0 0.0 0.00 0.00 0.00 83 1016.2
20260905063021 79 0.0 0.0 0.00 0.00 0.00 83 1016.4
20260905062021 79 0.0 0.0 0.00 0.00 0.00 83 1016.4
20260905061021 79 0.0 0.0 0.00 0.00 0.00 83 1016.5
20260905060022 79 0.0 0.0 0.00 0.00 0.00 83 1016.9
20260905055021 80 0.0 0.0 0.00 0.00 0.00 82 1016.9
20260905054021 80 0.0 0.0 0.00 0.00 0.00 82 1017.2
20260905053102 80 0.0 0.0 0.00 0.00 0.00 82 1017.4
20260905052042 80 0.0 0.0 0.00 0.00 0.00 81 1017.4
20260905051021 80 0.0 0.0 0.00 0.00 0.00 81 1017.6
20260905050021 80 0.0 1.0 0.00 0.00 0.00 81 1017.7
20260905045042 80 0.0 2.0 0.00 0.00 0.00 82 1017.9
20260905044021 80 0.0 1.0 0.00 0.00 0.00 83 1018.0
20260905043041 81 0.0 0.0 0.00 0.00 0.00 83 1018.0
20260905042041 81 0.0 1.0 0.00 0.00 0.00 82 1018.1
20260905041021 81 0.0 1.0 0.00 0.00 0.00 82 1018.1
20260905040104 81 0.0 0.0 0.00 0.00 0.00 82 1018.2
20260905035020 81 0.0 1.0 0.00 0.00 0.00 81 1017.9
20260905034020 81 0.0 2.0 0.00 0.00 0.00 81 1018.1
20260905033042 82 45 1.0 5.0 0.00 0.00 0.00 80 1018.2
20260905032022 82 0.0 3.0 0.00 0.00 0.00 79 1018.0
20260905031020 82 0.0 2.0 0.00 0.00 0.00 78 1017.6
20260905030040 83 0.0 2.0 0.00 0.00 0.00 77 1017.8
20260905025022 83 0.0 3.0 0.00 0.00 0.00 75 1017.9
20260905024022 83 0.0 0.0 0.00 0.00 0.00 73 1017.8
20260905023020 83 0.0 0.0 0.00 0.00 0.00 73 1018.1
20260905022020 83 0.0 0.0 0.00 0.00 0.00 72 1017.8
20260905021022 83 0.0 0.0 0.00 0.00 0.00 71 1017.8
20260905020022 84 0.0 0.0 0.00 0.00 0.00 70 1017.8
20260905015042 84 0.0 0.0 0.00 0.00 0.00 70 1017.8
20260905014022 84 0.0 0.0 0.00 0.00 0.00 69 1017.9
20260905013042 84 0.0 1.0 0.00 0.00 0.00 69 1018.0
20260905012022 84 0.0 1.0 0.00 0.00 0.00 68 1017.6
20260905011020 84 0.0 0.0 0.00 0.00 0.00 67 1016.6
20260905010022 84 0.0 1.0 0.00 0.00 0.00 67 1016.2
20260905005022 85 0.0 5.0 0.00 0.00 0.00 66 1015.5
20260905004022 85 315 1.0 9.0 0.00 0.00 0.00 65 1015.5
20260905003022 86 293 1.0 6.0 0.00 0.00 0.00 65 1015.5
20260905002022 86 0.0 1.0 0.00 0.00 0.00 66 1015.7
20260905001022 87 270 2.0 6.0 0.00 0.00 0.00 66 1015.5
20260905000022 88 315 1.0 5.0 0.00 0.00 0.00 67 1015.8
20260904235022 88 293 1.0 9.0 0.00 0.00 0.00 67 1015.9
20260904234022 89 270 1.0 7.0 0.00 0.00 0.00 68 1016.0
20260904233042 90 315 1.0 3.0 0.00 0.00 0.00 69 1016.2
20260904232022 90 0.0 1.0 0.00 0.00 0.00 68 1016.2
20260904231022 90 0.0 1.0 0.00 0.00 0.00 67 1016.0
20260904230021 91 0.0 2.0 0.00 0.00 0.00 66 1015.7
20260904225044 91 0.0 1.0 0.00 0.00 0.00 66 1015.6
20260904224022 92 0.0 1.0 0.00 0.00 0.00 65 1015.5
20260904223022 92 0.0 4.0 0.00 0.00 0.00 65 1015.7
20260904222101 93 0.0 4.0 0.00 0.00 0.00 64 1015.9
20260904221022 94 0.0 3.0 0.00 0.00 0.00 63 1015.5
20260904220022 94 0.0 1.0 0.00 0.00 0.00 63 1015.5
20260904215023 94 0.0 0.0 0.00 0.00 0.00 63 1015.7
20260904214142 95 0.0 2.0 0.00 0.00 0.00 62 1015.7
20260904213041 95 0.0 1.0 0.00 0.00 0.00 61 1015.6
20260904212021 95 0.0 0.0 0.00 0.00 0.00 61 1015.6
20260904211021 96 0.0 1.0 0.00 0.00 0.00 60 1015.6
20260904210203 96 0.0 1.0 0.00 0.00 0.00 60 1015.3
20260904205521 97 0.0 1.0 0.00 0.00 0.00 60 1015.3
20260904204522 97 0.0 3.0 0.00 0.00 0.00 59 1015.1
20260904203521 98 0.0 3.0 0.00 0.00 0.00 58 1015.1
20260904202521 99 45 1.0 4.0 0.00 0.00 0.00 57 1015.2
20260904201521 100 0.0 3.0 0.00 0.00 0.00 56 1015.3
20260904200602 101 68 1.0 4.0 0.00 0.00 0.00 54 1015.6
20260904195521 101 90 1.0 6.0 0.00 0.00 0.00 52 1015.9
20260904194541 101 0.0 5.0 0.00 0.00 0.00 51 1016.3
20260904193522 101 0.0 2.0 0.00 0.00 0.00 50 1016.5
20260904192522 102 0.0 2.0 0.00 0.00 0.00 50 1016.7
20260904191542 101 0.0 1.0 0.00 0.00 0.00 51 1016.4
20260904190541 100 315 1.0 5.0 0.00 0.00 0.00 52 1016.8
20260904185521 101 0.0 5.0 0.00 0.00 0.00 52 1016.9
20260904184522 100 0.0 2.0 0.00 0.00 0.00 54 1017.3
20260904183521 100 0.0 2.0 0.00 0.00 0.00 52 1017.4
20260904183021 100 0.0 3.0 0.00 0.00 0.00 53 1017.6
20260904182041 100 0.0 2.0 0.00 0.00 0.00 55 1017.5
20260904181021 99 0.0 3.0 0.00 0.00 0.00 55 1017.7
20260904180021 99 68 1.0 8.0 0.00 0.00 0.00 55 1017.9
20260904175021 99 0.0 2.0 0.00 0.00 0.00 55 1018.0
20260904174021 99 293 1.0 9.0 0.00 0.00 0.00 56 1018.0
20260904173022 99 0.0 1.0 0.00 0.00 0.00 56 1018.3
20260904172021 99 0.0 2.0 0.00 0.00 0.00 57 1018.3
20260904171021 99 0.0 3.0 0.00 0.00 0.00 59 1018.2
20260904170041 99 0.0 4.0 0.00 0.00 0.00 59 1018.3
20260904165021 99 0.0 3.0 0.00 0.00 0.00 60 1018.4
20260904164021 99 0.0 3.0 0.00 0.00 0.00 61 1018.7
20260904163021 99 0.0 2.0 0.00 0.00 0.00 59 1018.8
20260904162021 98 0.0 3.0 0.00 0.00 0.00 60 1018.9
20260904161021 99 0.0 1.0 0.00 0.00 0.00 60 1019.2
20260904160041 97 0.0 2.0 0.00 0.00 0.00 62 1019.2
20260904155021 97 0.0 2.0 0.00 0.00 0.00 62 1019.3
20260904154022 97 0.0 1.0 0.00 0.00 0.00 63 1019.4
20260904153021 96 0.0 3.0 0.00 0.00 0.00 64 1019.4
20260904152041 95 0.0 2.0 0.00 0.00 0.00 65 1019.5
20260904151021 93 0.0 3.0 0.00 0.00 0.00 68 1019.4
20260904150043 93 0.0 3.0 0.00 0.00 0.00 67 1019.4
20260904145041 92 0.0 3.0 0.00 0.00 0.00 68 1019.5
20260904144042 92 0.0 2.0 0.00 0.00 0.00 68 1019.6
20260904143021 91 0.0 3.0 0.00 0.00 0.00 69 1019.5
20260904142041 91 293 1.0 5.0 0.00 0.00 0.00 70 1019.5
20260904141021 91 0.0 2.0 0.00 0.00 0.00 71 1019.6
20260904140021 90 315 1.0 3.0 0.00 0.00 0.00 71 1019.5
20260904135041 91 0.0 0.0 0.00 0.00 0.00 71 1019.5
20260904134021 89 0.0 4.0 0.00 0.00 0.00 73 1019.6
20260904133021 89 0.0 3.0 0.00 0.00 0.00 75 1019.6
20260904132041 88 0.0 1.0 0.00 0.00 0.00 77 1019.6
20260904131021 86 0.0 2.0 0.00 0.00 0.00 78 1019.5
20260904130251 85 0.0 2.0 0.00 0.00 0.00 81 1019.6
20260904125521 84 0.0 2.0 0.00 0.00 0.00 83 1019.7
20260904124521 82 0.0 1.0 0.00 0.00 0.00 85 1019.7
20260904123521 80 0.0 1.0 0.00 0.00 0.00 88 1019.7
20260904122541 79 0.0 1.0 0.00 0.00 0.00 88 1019.8
20260904121520 79 0.0 1.0 0.00 0.00 0.00 89 1019.8
20260904120521 78 0.0 1.0 0.00 0.00 0.00 90 1019.7
20260904115521 78 0.0 1.0 0.00 0.00 0.00 90 1019.5
20260904114521 78 0.0 0.0 0.00 0.00 0.00 91 1019.6
20260904113521 77 0.0 1.0 0.00 0.00 0.00 91 1019.6
20260904112521 77 0.0 1.0 0.00 0.00 0.00 91 1019.4
20260904111542 77 0.0 0.0 0.00 0.00 0.00 91 1019.4
20260904110521 77 0.0 0.0 0.00 0.00 0.00 91 1019.2
20260904105521 77 0.0 0.0 0.00 0.00 0.00 91 1019.0
20260904104521 77 0.0 0.0 0.00 0.00 0.00 91 1019.0
20260904103542 77 0.0 0.0 0.00 0.00 0.00 90 1019.0
20260904102522 77 0.0 0.0 0.00 0.00 0.00 90 1019.0
20260904101520 77 0.0 0.0 0.00 0.00 0.00 90 1019.1
20260904100521 77 0.0 0.0 0.00 0.00 0.00 90 1019.0
20260904095521 78 0.0 0.0 0.00 0.00 0.00 90 1019.0
20260904094521 78 0.0 0.0 0.00 0.00 0.00 89 1019.0
20260904093521 78 0.0 0.0 0.00 0.00 0.00 89 1019.0
20260904092552 78 0.0 0.0 0.00 0.00 0.00 89 1019.1
20260904091521 78 0.0 0.0 0.00 0.00 0.00 88 1019.0
20260904090521 78 0.0 0.0 0.00 0.00 0.00 88 1018.9
20260904085521 79 0.0 0.0 0.00 0.00 0.00 87 1018.7
20260904084521 79 0.0 0.0 0.00 0.00 0.00 87 1018.7
20260904083520 79 0.0 0.0 0.00 0.00 0.00 87 1018.7
20260904082521 79 0.0 0.0 0.00 0.00 0.00 86 1018.6
20260904081521 79 0.0 0.0 0.00 0.00 0.00 86 1018.6
20260904080520 79 0.0 0.0 0.00 0.00 0.00 86 1018.7
20260904075521 80 0.0 0.0 0.00 0.00 0.00 85 1018.6
20260904074520 80 0.0 2.0 0.00 0.00 0.00 85 1018.6